DECAYED
Showing default

SOYUZ MS-26, 61043 (Decayed)

Orbit data source: Space-Track

SOYUZ MS-26, 61043 was a payload satellite owned by RKKE (CIS) in LEO that was launched on Wed, 11 Sep 2024 UTC via a SOYUZ-2-1A launch vehicle from the Tyuratam Missile And Space Complex (TTMTR). Payload-class satellites include a variety of spacecraft equipped with specific instruments for various scientific and technological missions. These include communications satellites like Starlink; space stations such as the ISS; scientific satellites like the Hubble; Earth observation satellites from companies like Planet Labs, Umbra, and HawkEye 360; GPS; miniature CubeSats for education and research; and military/defense satellites.

Loading next visibility...
Identifier
61043, 2024-162A
Orbit
Decayed
Country
Flag of CISCIS
Related business
Manufacturer
RKKE
Mission
Decayed Civil Spaceship
Bus & Motor
7K-S A48, SA
Mass
7,152 kg wet, 2,900 kg dry
Launch date (UTC)
2024-09-11 (1 year ago)
Launch vehicle
SOYUZ-2-1A
Launch site
Tyuratam Missile And Space Complex (TTMTR)
Object type
Payload
Rocket body
Debris
Shape & HBR
Cyl + Cone + Sphere + 2 Pan, 5.3 m
Radar Cross Section
25.344 m², Large (>1 m²)

Expand to show TLE details & history
Last TLE update: 6 months ago

TLE from 6 months ago
0 SOYUZ MS-26
1 61043U 24162A   25122.80241190  .00013988  00000-0  25885-3 0  9996
2 61043  51.6344 171.8584 0002186  73.9391 286.1838 15.49304274505759
Epoch: 2025-05-02T19:15Z
TLE epoch observation values (Epoch: 2025-05-02T19:15:28.388Z)
Latitude
-0.00002°
Longitude
22.03631°
Altitude
419.087 km
Speed
7.661 km/s
True Right ascension
11h 27m 26s
True Declination
0° 00' 00"
Sunlit
Object was in full shadow at epoch
Visualization orbit readout
Latitude
Unknown
Longitude
Unknown
Altitude
Unknown
Speed
Unknown
Apparent Right ascension
Unknown
Apparent Declination
Unknown
Sunlit
N/A
Visualization observer readout
Local Sidereal Time
21:31:39
Azimuth
Unknown
Elevation
Unknown
Doppler factor
Unknown
Orbital elements
Apogee altitude
420.755 km
Perigee altitude
417.783 km
Semi-major axis
6,797.406 km
Eccentricity
0.00022
Inclination
51.6344°
RAAN
171.8584°
Arg. of periapsis
73.9391°
True anomaly
286.15974°
Mean anomaly
286.1838°
Eccentric anomaly
286.17177°
Mean motion
3.87283 °/min
Orbital period
92.96 mins
BSTAR
0.00025885
Loading maneuver chart data...
Computing Atmospheric mass density...
Loading historical data...
Loading historical data...
Loading historical data...
Loading historical data...
Loading historical data...
Loading historical data...
Loading historical data...
Other satellites on launch #162 in the year 2024 (2024-09-11 UTC)

Documentation

Showing up to 5 results
|